Погода Тарко-Сале

Погода Тарко-Сале : погода сейчас, прогноз погоды и архив. Всё, что Вы хотите узнать о погоде Тарко-Сале!

Хотите узнать прогноз погоды Тарко-Сале? Тогда Вам сюда: Погода Тарко-Сале

Поиск расширенной информации на нашем сайте:

Другие новости

Новости СМИ2

Главная страница сайта

Новости сайта

03.07.2017

Напоминаем, что на нашем специализированном сайте Метеоцентр.Азия вы можете получить высокодетализированные автоматические прогнозы погоды по пунктам России, СНГ и мира в авиационном формате (включающие направление и скорость ветра, видимость, явления погоды, количество и форму облачности, нижнюю и верхнюю границу облачности).

Рекомендуем: http://china-dv.ru/ заказать и купить болюсы хуато.

Погода Тарко-Сале - сегодня

Время (UTC), дата Ветер
(°,м/с) 
Видим.   Явления Облачность Т
(°С)
Тd
(°С)
f(%) Тe
(°С)
Pmin
(гПа)
dP
(гПа)
Po
(мм)
O2
(г/м3)
Тmin Tmax R s Состояние
почвы
15 13.01.18 270 (З) 4000 м  слаб. снег  8/8 800 м 
[Sc]
-18.6 -20.1 88 -19  1003.7  0.6  750  326    -7.4  0.8     
18 13.01.18 300 (СЗ) 4000 м  слаб. снег  10/8 300 м средняя 
[Sc|As trans]
-18.6 -20.2 87 -23  1003.8  0.1  750  326           
21 13.01.18 300 (СЗ) 10 км  {снег}  ясно 
-22.6 -24.7 83 -27  1005.5  1.6  751  332           
00 14.01.18 290 (З) 4000 м  слаб. снег [диам. изморози 1 мм]  10/10 360 м 
[Sc]
-22.4 -24.5 83 -27  1005.3  -0.2  751  331           
03 14.01.18 310 (СЗ) 4000 м  ледяные иглы{снег} [диам. изморози 1 мм]  6/0 верхняя 
[Cs]
-23.9 -26.2 81 -29  1006.5  1.2  752  334  -23.9    0.2  63  равномерный
сухой снег
100% 
06 14.01.18 320 (СЗ) 10 км  {снег} [диам. изморози 1 мм]  3/0 верхняя 
[Cs]
-26.1 -28.6 79 -29  1009.3  2.8  754  338  -26.1         
09 14.01.18 320 (СЗ) 10 км  [диам. изморози 1 мм]  ясно 
-28.1 -30.8 78 -29  1012.2  2.8  756  342           
12 14.01.18 290 (З) 10 км  [диам. изморози 1 мм]  6/6 400 м 
[Sc]
-30.7 -33.6 76 -31  1013.7  2.7  758  346           
15 14.01.18 240 (ЮЗ) 10 км  [диам. изморози 1 мм]  ясно 
-32.2 -35.3 74 -33  1013.6  -0.2  757  348    -24  0.0     
18 14.01.18 220 (ЮЗ) 10 км  [диам. изморози 1 мм]  ясно 
-34 -37.5 71 -38  1013.3  -0.3  757  350           
21 14.01.18 130 (ЮВ) 10 км  [диам. изморози 2 мм]  10/0 верхняя 
[Cs]
-34.3   1011.1  -2.2  755             
00 15.01.18 130 (ЮВ) 10 км  [диам. изморози 2 мм]  10/0 верхняя 
[Cs]
-27.5 -30 79 -31  1007.4  -3.4  753  339           
03 15.01.18 130 (ЮВ) 4000 м  слаб. ливневой снег [диам. изморози 2 мм]  10/10 180 м кучево-дожд. 
[Cb cap]
-24.3 -26.5 82 -27  1004.4  -3.1  751  334  -34.3    0.3  64  равномерный
сухой снег
100% 
06 15.01.18 130 (ЮВ) 4000 м  слаб. ливневой снег [диам. изморози 2 мм]  10/10 240 м кучево-дожд. 
[Cb cap]
-21.7 -23.6 85 -26  1002.8  -1.6  749  330           
09 15.01.18 120 (ЮВ) 4000 м  слаб. ливневой снег [диам. изморози 1 мм]  10/8 300 м кучево-дожд., средняя 
[Cb cap|Ac As]
-19.9 -21.6 86 -23  1003.1  0.4  750  327           
12 15.01.18 100 (В) 10 км  {ливн. осадки} [диам. изморози 1 мм]  10/10 1050 м кучево-дожд. 
[Cb cap]
-19.9 -21.7 86 -23  1004.6  1.5  751  328           
15 15.01.18 120 (ЮВ) 4000 м  слаб. снег [диам. изморози 1 мм]  10/10 270 м 
[Sc]
-21.2 -23.1 85 -22  1005  0.3  751  330    -19.7     
18 15.01.18 140 (ЮВ) 4000 м  слаб. снег [диам. изморози 1 мм]  10/10 240 м 
[Sc]
-20.6 -22.4 85 -23  1005  0.1  751  329           
21 15.01.18 160 (Ю) 4000 м  слаб. снег [диам. изморози 1 мм]  10/10 60 м 
[Sc]
-18.5 -20.1 87 -19  1003.2  -1.8  750  326           
00 16.01.18 140 (ЮВ) 4000 м  слаб. снег [диам. изморози 1 мм]  10/10 150 м 
[Sc]
-17.3 -18.8 88 -20  1001.4  -1.8  748  323           
03 16.01.18 тихо ()   2000 м  ливневой снег  10/10 180 м кучево-дожд. 
[Cb cap]
-12.1 -12.9 94 -12  998.6  -2.7  746  316  -21.2    67  равномерный
сухой снег
100% 
06 16.01.18 330 (СЗ) 4000 м  слаб. переохл. морось (гололёд){ливн. осадки, снег}  10/10 150 м 
[St]
-5.9 -6 99 -8  999.6  747  308           
09 16.01.18 340 (С) 3{10}  4000 м  слаб. ливневой снег [диам. гололёда 1 мм]  10/10 570 м кучево-дожд. 
[Cb cap]
-11.6 -12.4 94 -15  1003.5  3.9  750  317           
12 16.01.18 330 (СЗ) 4{10}  10 км  позёмок{ливн. осадки, снег} [диам. гололёда 1 мм]  ясно 
-18.4 -20.1 86 -24  1007.4  3.7  753  327           
15 16.01.18 330 (СЗ) 10 км    4/0 верхняя 
[Cs]
-23.8 -26 82 -29  1010.1  2.7  755  335    -5.8     
Время (UTC), дата Ветер
(°,м/с) 
Видим.   Явления Облачность Т
(°С)
Тd
(°С)
f(%) Тe
(°С)
Pmin
(гПа)
dP
(гПа)
Po
(мм)
O2
(г/м3)
Тmin Tmax R s Состояние
почвы

Для получения пояснительной информации подведите курсор к названию столбца.

ПОГОДА Тарко-Сале - архив

Всё, что Вы хотите узнать о погоде Тарко-Сале - удобно и подробно!

Выберите нужную дату (начиная с 1 января 2015* года) и нажмите кнопку "Найти".
Будут отображены архивные сводки погоды по пункту Тарко-Сале, начиная с указанной даты.


Отображать данные в формате CSV (для использования в таблицах Excel)


Внимание! Наш архив погоды предназначен исключительно для личного некоммерческого использования в познавательных целях. Если Вам необходимы официальные справки о состоянии погоды (для производственных, юридических, коммерческих и т.п. целей), обращайтесь в органы Росгидромета.

*Примечание: данная дата относится к архиву по метеостанциям СССР (Россия, СНГ, Балтия).
Архив по метеостанциям Зарубежной Европы и Азии (кроме Китая) хранится 10 дней, по другим регионам земного шара (Китай, Африка, Америка, Австралия, Океания) - 1 день.

Тарко-Сале - район местоположения метеостанции


Название, широта, долгота, высота метеостанции:
Тарко-Сале 64.9°ш. 77.8°д. 27 м над ур. моря [Российская Федерация]

Дополнительная информация

В oтличие oт бoльшинства пoгoдных сайтoв мы публикуем пoдрoбную метеoинфoрмацию в детальнoм прoфессиoнальнoм фoрмате.

Характеристики температуры и влажнoсти вoздуха измеряются на высoте 2 м в тени вдали oт зданий и деревьев.
Скoрoсть ветра измеряется на высoте 10 м (на урoвне рoста челoвека скoрoсть ветра ниже в 1.5-2 раза). Если метеoстанция нахoдится в гoрoде или в лесу, тo скoрoсть ветра занижена на 2-4 м/с пo сравнению с oткрытым местoм. Скoрoсть ветра над акватoриями крупных рек и oзёр, а также на вершинах хoлмoв на 2-5 м/с выше, чем в oбычных услoвиях.
Атмoсфернoе давление в разных тoчках местнoсти мoжет значительнo oтличаться oт давления на метеoстанции, в зависимoсти oт услoвий рельефа (при пoдъёме на 10 м давление пoнижается примернo на 1 мм рт.ст.).